Flag for Germany Weather past 2 weeks in Speyer, Rhineland-Palatinate, Germany

Now
39 °F

Passing clouds.


Feels Like: 35 °F
Forecast: 31 / 41 °F
Wind: 6 mph from West

Location: Baden Wurttemberg - Neuostheim

Current Time: Jan 27, 2015 at 10:40:44 PM

Latest Report: Jan 27, 2015 at 8:50 PM


Visibility: N/A

Pressure: 30.21 "Hg

Humidity: 81%

Dew point: 34 °F

Location of SpeyerLocation

Historic Weather in Speyer — Graph

°F

Speyer temperature yesterday

Maximum temperature yesterday: 36 °F (at 8:50 AM)
Minimum temperature yesterday: 34 °F (at 5:20 AM)
Average temperature yesterday: 35 °F

Past Weeks' High & Low Weather Summary

 TemperatureHumidityPressure
High59 °F (Jan 13, 2:50 PM)100% (Jan 16, 10:20 AM)30.45 "Hg (Jan 16, 10:20 AM)
Low28 °F (Jan 19, 5:20 AM)31% (Jan 13, 2:50 PM)29.65 "Hg (Jan 15, 6:50 PM)
Average38 °F82%30.00 "Hg
* Reported Jan 12 8:50 PM — Jan 27 8:50 PM, Speyer, Weather by CustomWeather, © 2014

Note: Actual official high and low records may vary slightly from our data, if they occured in-between our weather recording intervals... More about our weather records

Advertising

Speyer weather history for previous 24 hours

 ConditionsComfort  
Time TempWeatherWind HumidityBarometerVisibility
8:50 PM
Jan 27
39 °FPassing clouds.6 mph81%30.21 "HgN/A
8:20 PM39 °FPartly cloudy.8 mph81%30.21 "HgN/A
7:50 PM39 °FPartly cloudy.10 mph81%30.21 "HgN/A
7:20 PM39 °FPartly cloudy.8 mph81%30.21 "HgN/A
6:50 PM39 °FPassing clouds.9 mph81%30.21 "HgN/A
6:20 PM39 °FMostly cloudy.10 mph81%30.21 "HgN/A
5:50 PM41 °FMostly cloudy.10 mph76%30.18 "HgN/A
5:20 PM41 °FOvercast.8 mph76%30.18 "HgN/A
4:50 PM41 °FPartly sunny.8 mph76%30.18 "HgN/A
4:20 PM41 °FPartly sunny.9 mph76%30.18 "HgN/A
3:50 PM41 °FBroken clouds.9 mph76%30.18 "HgN/A
3:20 PM41 °FPartly sunny.9 mph76%30.18 "HgN/A
2:50 PM41 °FBroken clouds.12 mph76%30.18 "HgN/A
2:20 PM41 °FPartly sunny.13 mph76%30.18 "HgN/A
1:50 PM41 °FLight rain. Overcast.13 mph76%30.18 "HgN/A
1:20 PM41 °FDrizzle. Partly sunny.13 mph76%30.18 "HgN/A
12:50 PM41 °FBroken clouds.14 mph70%30.18 "HgN/A
12:20 PM43 °FBroken clouds.13 mph66%30.21 "HgN/A
11:50 AM41 °FPassing clouds.12 mph76%30.21 "HgN/A
11:20 AM39 °FPartly sunny.6 mph81%30.21 "HgN/A
10:20 AM36 °FPartly sunny.5 mph93%30.21 "HgN/A
9:50 AM37 °FPartly sunny.5 mph87%30.21 "HgN/A
9:20 AM36 °FPartly sunny.3 mph87%30.21 "HgN/A
8:50 AM36 °FScattered clouds.3 mph87%30.21 "HgN/A
8:20 AM36 °FPassing clouds.5 mph87%30.18 "HgN/A
7:50 AM36 °FPassing clouds.3 mph87%30.18 "HgN/A
7:20 AM36 °FPassing clouds.5 mph87%30.18 "HgN/A
6:50 AM37 °FPassing clouds.6 mph87%30.18 "HgN/A
6:20 AM36 °FPassing clouds.5 mph93%30.18 "HgN/A
5:50 AM37 °FPassing clouds.6 mph81%30.18 "HgN/A
Weather by CustomWeather, © 2014

See weather overviewHow to use our weather pages